Weather in Kazach'ya Sloboda

Russia / Ryazan Oblast     54°00′42″N   41°41′44″E
temp.,
°C
wind,
m/s
gust,
m/s
humid.,
%
clouds,
%
prec.,
mm/h
press.,
hPa
HPBL,
m
29 june, wed
wed2900:00+12ne35700 0.0 102171
03:00+11nne33730 0.0 102240
06:00+12nne34760 0.0 1022149
09:00+17ne44600 0.0 1022660
12:00+19nne44480 0.0 10221538
15:00+20n33480 0.0 10211574
18:00+19n23550 0.0 10201362
21:00+14n11640 0.0 101910
30 june, thu
thu3000:00+12nnw22700 0.0 102011
03:00+10nw227579 0.0 101911
06:00+13nw2374100 0.0 1019106
09:00+17nnw3461100 0.0 1018495
12:00+20nnw354998 0.0 10171723
15:00+22nnw364254 0.0 10162313
18:00+22n245671 0.0 1014274
21:00+15n34645 0.0 101558
1 july, fri
fri100:00+14nnw346196 0.0 101651
03:00+11n477523 0.0 1016121
06:00+13nne38770 0.0 1017241
09:00+16nne69540 0.0 10181205
12:00+18nne78444 0.0 10181957
15:00+19nne68435 0.0 10182239
18:00+18nne47551 0.0 1018879
21:00+13nne22651 0.0 102015
2 july, sat
sat200:00+11nnw33715 0.0 102028
03:00+10nnw33655 0.0 102040
06:00+12nw36735 0.0 1020162
09:00+18nw465792 0.0 1019574
12:00+22nnw5650100 0.0 10181490
15:00+20n1266100 0.0 1017123
18:00+21wnw4666100 0.1 1016887
21:00+15wsw369729 0.6 1015139
3 july, sun
sun300:00+14nnw119825 1.5 101511
03:00+13e229933 1.5 101529
06:00+15e239410 0.0 1016142
09:00+19e22725 0.0 1017536
12:00+23ne23530 0.0 10171320
15:00+24nnw225012 0.0 10171506
18:00+24n115510 0.0 10171174
21:00+19sse227155 0.0 101911